CAPE
4 5 1 3 0 5 17 4 11 9 8 11 15 21 29 13 0 0 0 0 23 4 27 38 16 37 202 70 10 1 12 0 67 0 0 0 0 0 0 0 0 0 0 0 0 0 0 0 0 0 0 0 0 0
1 7 5 1 1 1 0 6 1 0 4 9 11 28 9 1 0 0 0 0 2 1 5 192 181 299 85 73 24 13 0 16 28 0 4 0 0 0 0 0 0 0 0 0 0 0 0 0 0 0 0 0 0 0
0 0 0 0 0 0 0 0 0 0 0 0 1 0 2 0 0 2 0 21 22 7 1 185 71 129 307 68 0 0 0 62 165 168 44 4 0 0 0 0 0 0 0 0 0 0 0 0 0 0 0 0 0 0
0 0 0 0 0 0 0 0 0 0 0 0 0 0 0 0 2 5 3 13 2 2 0 75 93 49 77 335 214 2 217 496 493 110 0 0 0 15 0 0 0 0 0 0 0 0 0 0 0 0 0 0 0 0
0 0 0 0 0 0 0 0 1 13 9 1 0 0 1 10 11 6 10 8 0 1 0 24 59 44 93 188 474 637 487 359 260 0 0 0 0 22 0 0 0 0 0 0 0 0 0 0 0 0 0 0 0 0
8 2 0 0 6 1 0 0 0 0 0 0 0 2 9 12 3 19 4 1 2 0 22 17 4 59 103 94 419 446 410 325 374 0 1 0 0 0 0 0 0 0 0 0 0 0 0 0 0 0 0 0 0 0
1 0 0 0 0 0 0 0 0 0 0 1 3 3 8 1 10 0 0 0 0 1 37 9 0 29 59 109 93 187 261 153 86 0 1 0 0 0 0 0 0 0 0 0 0 0 0 0 0 0 0 0 0 0
1 4 4 1 0 0 0 5 2 1 1 0 0 3 0 0 1 20 0 0 0 183 32 9 0 24 31 60 75 25 139 0 0 0 0 0 0 0 0 0 0 0 0 0 0 0 0 0 0 0 0 0 0 0
0 1 1 2 2 3 2 2 3 5 2 0 1 0 7 20 60 9 0 0 0 22 2 0 0 1 0 0 0 0 0 0 0 0 0 0 0 0 0 0 0 0 0 0 0 0 0 0 0 0 0 0 0 0
0 1 0 1 1 1 0 1 1 1 1 0 11 54 24 1 0 0 0 0 0 0 0 0 0 0 0 0 0 0 0 0 0 0 0 0 0 0 0 0 0 0 0 0 0 0 0 0 0 0 0 0 0 0
1 0 0 0 0 0 1 1 2 0 0 20 8 0 0 0 0 0 0 0 0 0 0 0 0 0 0 0 0 0 0 0 0 0 0 0 0 0 0 0 0 0 0 0 0 0 0 0 0 0 0 0 0 0
0 0 0 0 0 1 1 0 0 0 10 8 0 0 0 0 0 0 0 0 0 0 0 0 0 0 0 0 0 0 0 0 0 0 0 0 0 0 0 0 0 0 0 0 0 0 0 0 0 0 0 0 0 0
0 0 0 0 0 0 0 0 0 0 0 0 0 0 0 0 0 0 0 0 0 1 0 0 0 0 0 0 0 0 0 0 0 0 0 0 2 0 0 0 0 0 0 0 0 0 0 0 0 0 0 0 0 0
0 0 0 0 0 0 0 0 0 0 0 0 0 0 0 0 1 0 0 0 0 0 0 0 0 0 1 0 0 0 0 0 1 0 0 0 0 0 0 0 0 0 0 0 0 0 0 0 0 0 0 0 0 0
0 0 0 0 0 0 0 0 0 0 0 0 0 0 2 2 2 1 1 1 0 0 0 1 0 0 0 0 0 1 0 0 0 0 0 0 0 0 0 0 0 0 0 0 0 0 0 0 0 0 0 0 0 0
0 0 0 0 0 0 0 0 0 0 0 0 0 0 1 0 1 0 0 0 1 0 0 0 0 0 0 0 0 0 0 0 0 0 1 0 0 0 0 0 0 0 0 0 0 0 0 0 0 0 0 0 0 0
0 0 0 0 0 0 0 0 0 0 0 0 0 0 0 2 1 1 1 1 0 0 0 0 0 0 0 0 0 0 0 1 0 2 0 0 0 0 0 0 0 0 0 0 0 0 0 0 0 0 0 0 0 0
0 0 0 0 0 0 0 0 0 0 0 0 0 1 0 0 1 0 0 1 1 1 1 0 1 0 0 0 1 1 0 0 0 0 0 1 2 2 2 1 1 0 0 0 0 0 0 0 0 0 0 0 0 0
0 0 0 0 0 0 0 0 0 0 0 0 0 0 0 0 0 1 1 0 1 2 1 0 0 0 0 0 0 1 0 0 0 0 0 1 1 1 0 0 0 0 0 0 0 0 0 0 0 0 0 0 0 0
0 0 0 0 0 0 0 0 0 0 0 0 0 0 0 0 0 0 0 0 0 0 0 0 0 1 0 1 2 0 0 0 0 0 0 0 2 1 0 0 0 0 0 0 0 0 0 0 0 0 0 0 0 0
0 0 0 0 0 0 0 0 0 0 0 0 0 0 0 0 0 0 0 0 0 0 0 0 0 0 1 1 1 1 0 0 1 1 2 1 1 0 1 0 0 0 0 0 0 0 0 0 0 0 0 0 0 0
0 0 0 0 0 0 0 0 0 2 0 0 0 0 0 0 0 1 0 0 0 0 0 0 0 1 0 0 0 1 2 2 1 0 1 1 1 0 0 1 0 0 0 0 0 0 0 0 0 0 0 0 0 0
0 0 0 0 0 0 0 0 0 0 0 0 0 1 0 0 0 0 0 0 0 1 0 0 0 0 0 0 0 0 0 0 1 0 0 0 0 0 0 0 0 0 0 0 0 0 0 0 0 0 0 0 0 0
0 0 0 0 0 0 0 0 3 0 1 1 0 0 0 0 2 0 0 0 0 0 0 0 0 0 0 0 0 0 0 1 0 0 0 0 0 0 0 0 0 0 0 0 0 0 0 0 0 0 0 0 0 0
0 0 0 0 0 0 0 0 0 1 0 0 0 0 0 0 0 0 0 0 0 0 0 0 0 0 0 0 0 0 0 0 0 0 0 0 0 0 0 0 0 0 0 0 0 0 0 0 0 0 0 0 0 0
0 0 0 1 0 0 0 0 0 0 0 0 0 0 0 0 0 0 0 0 0 0 0 0 0 0 0 0 0 0 0 0 0 0 0 0 0 0 0 0 0 0 0 0 0 0 0 0 0 0 0 0 0 0
0 0 0 1 0 1 1 1 5 0 0 0 0 0 0 0 0 0 0 0 0 0 0 0 0 0 0 0 0 0 0 0 0 0 0 0 0 0 0 0 0 0 0 0 0 0 0 0 0 0 0 0 0 0
0 0 0 0 0 0 0 0 0 0 0 0 0 0 0 1 0 0 0 0 0 0 0 0 0 0 0 0 0 0 0 0 0 0 0 0 0 0 0 0 0 0 0 0 0 0 0 0 0 0 0 0 0 0
0 0 0 0 0 1 0 1 0 0 0 0 0 0 0 0 0 0 0 0 0 0 0 0 0 0 0 0 0 0 0 0 0 0 0 0 0 0 0 0 0 0 0 0 0 0 0 0 0 0 0 0 0 0
0 0 1 1 1 0 0 0 0 0 0 0 0 0 0 0 0 0 0 0 0 0 0 0 0 0 0 0 0 0 0 0 0 0 0 0 0 0 0 0 0 0 0 0 0 0 0 0 0 0 0 0 0 0
0 1 1 0 0 0 1 1 0 0 0 0 0 0 0 0 0 0 0 0 0 0 0 0 0 0 0 0 0 0 0 0 0 0 0 0 0 0 0 0 0 0 0 0 0 0 0 0 0 0 0 0 0 0
0 0 0 0 0 0 0 0 0 0 0 0 0 0 0 0 0 0 0 0 0 0 0 0 0 0 0 0 0 0 0 0 0 0 0 0 0 0 0 0 0 0 0 0 0 0 0 0 0 0 0 0 0 0
0 0 0 0 1 0 0 0 2 0 0 0 0 0 0 0 0 0 0 0 0 0 0 0 0 0 0 0 0 0 0 0 0 0 0 0 0 0 0 0 0 0 0 0 0 0 0 0 0 0 0 0 0 0
CIN
-1 0 -1 0 0 -1 -1 -1 0 -1 -1 -1 -55 -19 -8 -10 0 0 0 0 0 -17 -45 -29 -18 -37 -38 -28 -59 -9 -116 0 -86 0 0 0 0 0 -3 0 0 0 0 0 0 0 0 0 0 0 0 0 0 0
-1 0 -2 -2 -4 -5 -1 -2 -3 -1 -4 -6 -26 -5 -9 -2 0 0 0 -1 0 0 -22 -98 -78 -115 -33 -61 -117 -108 0 -44 -89 0 -44 0 0 0 0 0 0 0 0 0 0 0 0 0 0 0 0 0 0 0
0 0 0 0 0 0 0 0 0 0 0 0 -65 0 -22 0 0 0 0 -1 0 0 -1 -43 -60 -132 -124 -125 -26 0 0 -45 -77 -114 -143 -37 0 0 0 0 0 0 0 0 0 0 0 0 0 0 0 0 0 0
0 0 0 0 0 0 0 0 0 0 0 0 0 0 0 0 -1 -3 -1 -2 -1 0 -1 -20 -96 -148 -181 -106 -87 -68 -67 -30 -81 -136 0 0 0 -87 0 0 0 0 0 0 0 0 0 0 0 0 0 0 0 0
0 0 0 0 0 0 0 0 -1 -1 -1 -34 0 0 0 0 0 0 0 -1 0 0 0 -14 -41 -117 -135 -75 -48 -35 -20 -62 -97 0 0 0 0 -29 0 0 0 0 0 0 0 0 0 0 0 0 0 0 0 0
-4 -7 0 0 -5 -1 0 0 0 0 0 0 0 0 0 0 0 0 -2 -3 -1 0 0 -2 -34 -84 -73 -91 -53 -52 -50 -62 -80 -3 -59 -2 0 0 0 0 0 0 0 0 0 0 0 0 0 0 0 0 0 0
-1 -1 0 0 0 0 0 -1 0 0 0 0 -1 -1 0 0 -1 -1 0 -2 0 0 -9 -35 0 -59 -116 -127 -156 -76 -65 -93 -95 0 -67 0 0 0 0 0 0 0 0 0 0 0 0 0 0 0 0 0 0 0
-1 -2 -2 -2 0 0 0 -1 -1 0 0 0 0 0 0 0 -2 -1 -3 0 0 -60 -165 -113 -13 -78 -135 -96 -86 -180 -73 0 0 0 0 0 0 0 0 0 0 0 0 0 0 0 0 0 0 0 0 0 0 0
0 0 0 0 0 0 -5 -3 -2 0 0 0 0 0 -7 -1 -1 -11 0 0 -34 -134 -31 0 -1 0 0 0 0 0 0 0 0 0 0 0 0 0 0 0 0 0 0 0 0 0 0 0 0 0 0 0 0 0
0 0 0 0 0 0 0 0 0 0 0 0 -13 -1 -2 -2 0 0 0 0 0 0 0 0 0 0 0 0 0 0 0 0 0 0 0 0 0 0 0 0 0 0 0 0 0 0 0 0 0 0 0 0 0 0
0 0 0 0 0 0 0 0 0 0 0 -18 -8 0 0 0 0 0 0 0 0 0 0 0 0 0 0 0 0 0 0 0 0 0 0 0 0 0 0 0 0 0 0 0 0 0 0 0 0 0 0 0 0 0
0 0 0 0 0 0 0 0 0 0 -28 -20 -3 0 0 0 0 0 0 0 0 0 0 0 0 0 0 0 0 0 0 0 0 0 0 0 0 0 0 0 0 0 0 0 0 0 0 0 0 0 0 0 0 0
0 0 0 0 0 0 0 0 0 0 0 0 0 0 0 0 0 0 0 0 0 0 0 0 0 0 0 0 0 0 0 0 0 0 0 0 0 0 0 0 0 0 0 0 0 0 0 0 0 0 0 0 0 0
0 0 0 0 0 0 0 0 0 0 0 0 0 0 0 0 0 0 0 0 0 0 0 0 0 -1 0 0 0 0 0 0 0 0 0 0 0 0 0 0 0 0 0 0 0 0 0 0 0 0 0 0 0 0
0 0 0 0 0 0 0 0 0 0 0 0 0 0 0 0 0 0 0 0 0 0 0 0 0 0 0 0 0 0 0 0 0 0 0 0 0 0 0 0 0 0 0 0 0 0 0 0 0 0 0 0 0 0
0 0 0 0 0 0 0 0 0 0 0 0 0 0 0 0 0 0 0 0 0 0 0 0 0 0 0 0 0 0 0 0 0 0 0 0 0 0 0 0 0 0 0 0 0 0 0 0 0 0 0 0 0 0
0 0 0 0 0 0 0 0 0 0 0 0 0 0 0 0 0 0 0 0 0 0 0 0 0 0 0 0 0 0 0 0 0 0 0 0 0 0 0 0 0 0 0 0 0 0 0 0 0 0 0 0 0 0
0 0 0 0 0 0 0 0 0 0 0 0 0 0 0 0 0 0 0 0 0 0 0 0 0 0 0 0 0 0 0 0 0 0 0 0 0 0 0 0 0 0 0 0 0 0 0 0 0 0 0 0 0 0
0 0 0 0 0 0 0 0 0 0 0 0 0 0 0 0 0 0 0 0 0 0 0 0 0 0 0 0 0 0 0 0 0 0 0 0 0 0 0 0 0 0 0 0 0 0 0 0 0 0 0 0 0 0
0 0 0 0 0 0 0 0 0 0 0 0 0 0 0 0 0 -3 0 0 0 0 0 0 0 0 0 0 0 0 0 0 0 0 0 0 0 0 0 0 0 0 0 0 0 0 0 0 0 0 0 0 0 0
0 0 0 0 0 0 0 0 0 0 0 0 0 0 0 0 0 0 0 0 0 0 0 0 0 0 0 0 0 0 0 0 0 0 0 0 0 0 0 0 0 0 0 0 0 0 0 0 0 0 0 0 0 0
0 0 0 0 0 0 0 0 0 -3 0 -1 0 0 0 0 0 0 0 0 -1 0 0 0 0 0 0 0 0 0 0 0 0 0 0 0 0 0 0 0 0 0 0 0 0 0 0 0 0 0 0 0 0 0
0 0 0 0 0 0 0 0 0 0 -1 0 -1 -3 -2 0 0 0 0 0 0 0 0 0 0 0 0 0 0 0 0 0 0 0 0 0 0 0 0 0 0 0 0 0 0 0 0 0 0 0 0 0 0 0
0 0 0 0 0 0 0 0 -3 -1 -1 -2 -3 -2 0 -1 -6 0 0 0 0 0 0 0 0 0 0 0 0 0 0 0 0 0 0 0 0 0 0 0 0 0 0 0 0 0 0 0 0 0 0 0 0 0
0 0 0 0 0 0 0 -1 0 -2 0 0 0 0 0 -1 -1 0 0 0 0 0 0 0 0 0 0 0 0 0 0 0 0 0 0 0 0 0 0 0 0 0 0 0 0 0 0 0 0 0 0 0 0 0
0 0 0 0 -1 0 -2 -1 -1 -3 0 0 0 0 0 0 0 0 0 0 0 0 0 0 0 0 0 0 0 0 0 0 0 0 0 0 0 0 0 0 0 0 0 0 0 0 0 0 0 0 0 0 0 0
0 -1 -2 -5 -8 -3 -2 -5 -3 0 0 0 0 -4 -8 0 0 0 0 0 0 0 0 0 0 0 0 0 0 0 0 0 0 0 0 0 0 0 0 0 0 0 0 0 0 0 0 0 0 0 0 0 0 0
0 -1 -1 -1 0 -3 -3 -4 -1 0 0 0 0 0 0 0 0 0 0 0 0 0 0 0 0 0 0 0 0 0 0 0 0 0 0 0 0 0 0 0 0 0 0 0 0 0 0 0 0 0 0 0 0 0
0 0 0 0 -1 -1 -1 -4 -3 -1 0 0 0 0 0 0 0 0 0 0 0 0 0 0 0 0 0 0 0 0 0 0 0 0 0 0 0 0 0 0 0 0 0 0 0 0 0 0 0 0 0 0 0 0
-1 -3 0 0 -1 -3 -2 -4 0 0 0 0 0 0 0 0 0 0 0 0 0 0 0 0 0 0 0 0 0 0 0 0 0 0 0 0 0 0 0 0 0 0 0 0 0 0 0 0 0 0 0 0 0 0
-2 -4 0 -1 0 -1 -3 -1 0 0 0 0 0 0 0 0 0 0 0 0 0 0 0 0 0 0 0 0 0 0 0 0 0 0 0 0 0 0 0 0 0 0 0 0 0 0 0 0 0 0 0 0 0 0
0 0 0 -1 0 0 -2 0 0 0 0 0 0 0 0 0 0 0 0 0 0 0 0 0 0 0 0 0 0 0 0 0 0 0 0 0 0 0 0 0 0 0 0 0 0 0 0 0 0 0 0 0 0 0
-3 0 0 0 -2 -2 0 0 -4 0 0 0 0 0 0 0 0 0 0 0 0 0 0 0 0 0 0 0 0 0 0 0 0 0 0 0 0 0 0 0 0 0 0 0 0 0 0 0 0 0 0 0 0 0
Wind_Speed
18 17 16 15 15 16 15 14 14 14 18 23 33 41 47 50 55 51 55 47 37 29 27 37 34 41 36 31 28 22 21 32 21 18 14 14 15 14 10 5 8 7 9 15 16 18 23 10 14 16 11 13 16 19
16 14 13 14 14 15 13 13 14 16 25 21 30 39 45 52 56 51 50 45 37 32 27 26 23 26 37 25 20 22 23 19 17 17 15 14 14 13 11 8 9 11 10 10 10 14 13 11 9 10 11 15 19 21
12 10 10 11 13 13 16 14 19 24 24 25 35 41 46 55 56 54 47 37 36 31 34 29 26 22 18 20 17 24 23 28 24 18 15 16 15 12 11 12 10 12 9 13 12 15 11 10 12 13 15 17 19 21
36 24 10 12 15 17 21 27 31 38 36 42 43 45 48 55 56 49 47 40 32 30 21 24 23 20 18 15 15 17 21 19 16 16 17 17 15 13 12 14 13 15 11 12 13 8 11 15 15 14 17 17 19 22
33 35 36 37 36 36 35 34 34 36 42 46 45 44 51 50 46 42 42 37 34 28 28 21 18 15 17 13 15 15 15 12 17 17 18 18 14 14 15 15 15 15 15 14 17 16 12 14 14 15 17 18 19 20
31 34 34 35 36 38 39 40 41 43 44 45 45 49 50 46 40 37 36 42 38 29 21 26 20 14 15 15 12 13 15 16 17 18 19 17 17 17 16 18 17 12 14 14 16 12 10 11 15 17 17 18 19 19
29 29 31 33 36 38 40 40 42 44 43 47 50 48 47 46 44 41 33 24 22 29 28 22 21 21 17 16 17 17 17 18 20 21 22 20 20 18 20 21 13 12 12 13 11 9 14 16 16 16 16 17 18 19
31 32 34 35 37 39 40 44 46 46 47 47 49 51 47 34 22 32 25 21 23 9 8 10 15 18 19 19 21 21 22 21 21 22 22 22 20 21 24 14 11 11 12 15 16 15 12 11 13 13 14 15 16 16
38 40 41 43 42 43 45 46 49 50 49 47 44 45 34 37 27 19 15 13 8 7 9 10 10 16 16 18 18 18 19 23 22 23 22 21 23 26 20 14 12 12 16 12 12 12 12 13 12 12 13 14 14 14
21 30 40 41 41 41 44 44 45 45 41 39 37 33 25 20 17 17 13 14 13 12 10 9 13 13 17 19 19 19 19 19 24 24 20 24 26 19 16 13 13 13 11 11 12 15 13 12 11 11 12 13 13 14
22 18 19 31 36 32 35 40 43 44 40 30 21 13 13 12 13 12 14 15 16 16 14 14 15 13 17 19 19 17 18 20 24 24 24 26 29 22 16 16 16 13 12 14 14 11 10 9 9 10 11 12 13 15
24 23 20 18 20 28 35 38 44 29 27 23 17 13 9 12 14 17 18 17 17 20 16 17 16 15 16 15 15 16 18 20 23 18 23 29 24 15 14 14 14 10 12 11 10 9 8 8 8 9 11 12 14 15
24 22 17 17 16 16 20 37 25 21 21 16 15 16 17 15 17 20 19 18 18 16 14 14 12 13 13 14 15 18 20 22 13 22 25 24 16 12 11 10 10 9 8 9 10 9 8 9 10 10 11 11 13 16
14 15 17 11 11 11 12 15 21 16 13 15 18 18 18 18 17 18 17 16 14 15 12 12 14 14 13 14 14 17 19 18 24 27 28 20 15 11 9 8 6 6 7 7 7 7 8 9 10 11 12 13 15 17
13 11 9 5 3 2 3 5 1 8 12 15 16 18 17 15 13 12 12 11 14 13 10 13 14 14 14 14 16 16 19 23 23 25 21 14 8 6 7 7 7 6 7 7 7 7 7 9 11 12 14 15 16 18
3 4 4 3 3 3 5 5 7 10 12 13 13 15 16 15 13 12 11 11 13 13 13 12 13 16 17 15 16 18 18 22 21 19 15 8 7 7 7 6 6 6 6 6 6 7 8 10 12 13 14 15 17 19
10 7 8 6 5 7 8 7 10 12 13 14 15 14 13 11 12 13 13 15 16 14 15 16 16 17 15 18 19 19 21 20 18 16 11 7 6 5 4 3 5 5 6 7 8 9 10 12 12 14 17 17 17 20
13 8 11 9 9 9 9 9 8 10 11 11 10 11 10 11 12 14 15 16 13 13 15 16 16 16 17 19 20 18 17 16 14 11 8 6 5 5 4 5 6 6 8 8 10 11 11 12 14 16 18 19 20 23
16 17 17 15 11 9 11 13 12 11 9 9 10 11 11 12 14 15 15 15 13 13 14 16 17 18 20 20 20 16 13 13 12 11 10 7 7 6 7 7 8 8 10 10 11 12 14 15 16 18 20 22 23 26
16 19 19 18 14 12 12 13 13 11 11 10 11 12 12 14 15 16 16 16 15 15 15 16 17 18 18 20 18 14 12 11 10 11 11 10 9 8 8 8 9 10 11 13 13 13 15 17 20 21 23 24 26 29
19 19 19 18 17 16 13 14 13 11 10 11 13 13 14 16 17 17 17 18 16 16 15 17 16 17 18 19 18 16 16 14 12 12 10 10 10 10 11 12 12 14 14 15 16 17 19 20 22 23 24 26 27 29
21 20 19 20 17 16 16 18 13 13 13 13 15 15 16 17 18 17 17 17 16 18 18 19 19 18 19 20 20 20 19 17 16 13 12 12 13 15 15 15 13 16 17 18 18 19 21 22 24 25 27 28 29 29
22 21 21 22 18 18 17 19 16 17 16 16 17 17 17 17 18 17 16 17 17 21 22 19 18 19 19 20 20 21 21 19 18 17 16 16 16 16 17 17 17 18 20 21 20 21 23 23 26 27 28 30 31 31
25 22 22 21 22 19 18 19 18 17 17 17 18 18 18 18 18 17 18 18 21 22 23 23 20 21 21 22 22 23 23 20 18 19 19 18 19 19 18 18 19 20 20 20 22 23 24 27 27 29 31 32 32 32
22 25 23 24 23 22 21 21 21 19 19 19 18 19 19 19 19 19 19 19 22 23 24 23 22 22 22 21 22 23 24 21 20 20 21 19 17 17 18 18 20 22 23 24 26 27 29 29 31 32 33 32 33 33
23 26 23 24 24 22 22 21 20 20 19 18 18 18 18 18 19 19 18 20 21 22 23 24 23 22 22 23 23 23 24 21 20 20 21 21 21 21 20 21 22 25 25 25 28 30 31 32 33 34 34 34 35 34
22 23 23 21 20 19 19 20 19 19 19 19 19 20 20 19 19 18 17 21 20 21 22 22 22 22 21 22 21 22 22 22 20 19 19 20 21 22 22 24 26 26 26 27 29 31 32 33 34 35 35 35 34 35
20 21 22 22 22 21 19 19 19 20 20 21 21 20 19 20 20 19 20 22 20 18 20 21 21 21 21 22 23 23 24 22 19 18 19 20 23 24 25 25 25 27 28 28 30 30 32 32 34 34 35 36 35 34
21 21 20 22 21 21 21 19 18 19 22 21 21 20 20 19 20 20 21 22 20 21 22 23 22 20 21 23 23 24 25 25 24 25 26 26 27 30 32 30 28 29 30 31 32 32 34 34 33 34 35 35 33 31
21 21 19 21 20 19 20 21 18 19 22 20 17 17 18 18 21 22 22 23 23 21 22 22 23 23 24 24 23 24 25 25 26 26 28 30 31 33 34 33 34 34 32 34 34 34 34 34 34 34 33 34 32 31
20 20 20 20 19 19 19 17 17 18 21 22 21 19 17 16 18 22 25 23 21 23 21 22 23 23 24 25 26 26 26 27 26 27 30 31 33 35 36 36 36 36 36 36 34 34 35 35 35 34 33 33 32 30
21 22 21 21 21 20 19 19 19 20 19 21 20 19 16 18 21 20 24 23 22 22 23 23 23 24 24 24 26 26 27 29 30 34 34 33 33 34 34 34 35 35 36 37 36 35 35 35 35 34 32 30 31 31
20 22 23 22 21 21 21 20 18 20 21 21 21 20 20 19 19 18 19 22 21 22 24 25 25 25 24 26 29 29 29 32 34 34 34 33 32 32 33 34 35 34 35 34 34 34 34 34 34 33 31 30 30 29
Wind_Direction
141 150 153 166 187 187 195 202 201 167 169 191 200 203 205 205 204 209 211 216 222 237 239 229 225 219 225 227 224 223 238 234 238 237 252 267 277 277 300 301 313 304 297 288 291 291 286 310 308 306 330 342 338 337
129 142 160 182 191 189 190 189 190 194 198 186 200 203 204 204 202 205 209 216 228 236 238 251 226 234 230 225 217 221 222 236 243 244 255 267 278 279 289 301 307 304 303 306 305 303 311 328 347 357 1 345 339 343
129 151 177 187 191 189 203 203 206 207 207 202 202 204 203 202 200 203 205 211 220 234 239 234 224 236 227 218 220 232 243 243 237 246 250 268 276 282 279 287 296 305 302 306 312 307 320 346 347 349 351 347 351 349
144 141 190 200 208 207 210 208 204 195 203 199 201 200 203 199 198 202 205 209 214 225 231 226 229 229 229 213 214 216 234 241 236 241 256 266 272 279 282 293 287 290 295 301 307 336 346 336 339 349 349 353 352 352
148 156 164 179 190 195 200 204 204 199 192 191 196 200 193 193 198 204 208 217 228 234 228 236 215 230 228 226 222 214 218 225 239 247 259 263 273 282 285 288 289 292 294 295 300 310 317 328 342 348 346 345 349 351
149 159 161 166 171 183 193 192 192 190 191 193 194 187 189 188 193 196 209 224 211 235 247 232 216 231 234 226 223 226 235 249 253 255 261 268 276 278 281 283 294 302 315 311 308 327 338 344 344 344 345 347 350 352
162 165 163 171 177 178 179 183 186 185 188 184 183 186 188 186 188 192 200 221 229 217 219 217 221 233 240 240 243 246 253 255 255 259 265 267 272 277 282 282 287 306 320 327 335 341 327 326 328 342 348 352 356 359
145 151 157 161 162 164 169 167 168 172 175 178 180 177 182 188 208 209 218 208 203 234 253 243 247 241 252 244 245 257 252 257 263 262 266 268 274 278 280 284 293 309 321 325 324 322 329 344 345 346 352 354 355 359
124 131 136 138 149 153 157 160 161 164 168 171 173 173 176 188 217 230 254 267 327 305 277 278 242 243 252 248 254 256 259 254 265 263 265 270 272 274 281 281 294 300 307 320 334 338 336 333 337 343 347 352 356 358
117 134 140 141 144 149 151 156 159 163 165 162 165 180 200 213 213 228 249 259 275 292 303 286 266 256 250 247 255 255 263 258 260 264 271 271 273 283 293 298 304 310 314 319 318 316 325 328 334 342 348 353 359 358
74 96 126 148 152 157 158 159 161 162 163 178 200 204 196 242 240 257 262 266 269 272 282 278 266 255 259 245 251 265 265 265 264 267 268 272 274 279 290 298 305 309 315 316 321 327 331 335 343 353 354 356 356 355
61 72 88 111 139 157 161 162 159 176 192 195 189 200 229 251 250 242 245 260 271 258 277 260 264 260 262 260 266 267 270 270 271 272 273 275 286 292 293 297 303 310 317 325 334 340 348 352 359 360 355 355 357 359
55 61 81 92 98 121 150 166 179 172 179 201 223 231 244 255 245 247 253 260 268 270 276 261 263 276 273 274 273 271 271 271 279 278 279 287 295 299 302 308 316 322 334 343 347 355 4 4 3 0 1 2 2 357
52 59 58 82 97 106 154 175 193 203 219 226 228 227 238 247 257 263 266 273 281 267 271 257 264 278 285 281 289 280 280 282 277 279 285 297 296 301 311 318 326 328 338 346 351 356 358 358 360 2 1 358 354 350
42 50 52 72 126 147 57 52 280 247 249 242 250 249 258 271 278 295 297 287 262 283 273 264 275 289 290 292 293 290 286 283 286 291 302 308 309 311 314 322 327 336 343 345 352 1 6 3 358 354 353 353 353 352
341 33 17 288 287 290 268 328 289 246 247 254 260 257 258 260 270 287 291 276 280 283 281 294 291 289 294 303 299 294 290 291 301 311 318 319 314 316 324 332 340 348 1 6 5 2 359 356 351 351 353 352 352 351
16 349 298 304 308 347 337 287 274 260 256 262 265 277 285 285 285 292 291 289 288 289 289 294 291 293 307 300 297 303 300 308 317 325 337 329 326 337 359 16 359 13 8 3 356 351 350 352 356 352 347 347 347 348
12 321 334 317 333 352 337 331 312 298 286 289 288 293 310 319 308 308 302 300 308 303 302 302 302 302 301 301 305 314 318 326 336 349 6 9 9 15 16 5 358 354 355 353 350 347 349 349 347 345 345 344 343 342
6 359 353 353 345 326 326 324 320 305 314 312 314 321 328 328 331 330 330 326 334 326 315 311 309 306 307 314 315 325 333 338 345 350 357 359 -0 358 355 354 353 351 347 345 348 348 349 348 344 342 341 340 338 339
356 356 353 357 354 337 316 313 328 326 309 315 323 325 325 328 334 336 340 337 337 327 325 323 323 327 326 326 325 329 341 346 352 347 342 346 351 355 352 350 347 350 347 345 343 343 343 341 341 340 339 338 336 334
1 350 347 358 4 8 355 334 332 327 327 320 317 322 325 333 336 332 334 340 341 330 332 334 337 337 335 337 337 339 338 336 339 336 342 341 347 347 344 340 337 335 331 330 330 335 336 335 336 337 337 336 336 335
0 349 7 360 2 356 354 342 340 340 330 328 326 326 320 319 322 328 337 333 332 334 329 327 330 335 339 340 342 342 340 341 341 341 343 341 331 332 333 335 336 332 336 334 333 329 332 334 335 335 335 335 336 336
11 4 5 360 355 349 344 346 342 334 321 319 322 319 319 320 321 329 325 332 335 337 340 340 346 347 342 338 339 340 341 343 344 343 341 340 340 340 338 337 335 329 328 331 335 333 333 334 334 333 334 335 334 334
29 9 355 353 354 346 348 341 342 340 337 325 320 317 318 320 328 326 320 326 331 333 335 336 339 337 340 340 338 337 337 340 341 340 338 336 331 332 337 337 339 339 338 337 335 335 334 331 334 333 332 332 332 332
11 355 2 352 355 348 342 339 335 332 328 328 325 322 321 324 319 319 320 325 331 331 332 335 338 337 336 337 337 337 340 340 335 334 337 340 338 337 336 342 341 340 338 332 330 330 330 331 331 331 331 331 331 331
9 11 5 354 358 356 349 344 340 339 336 334 333 330 329 327 323 318 325 331 334 333 333 333 335 338 339 339 337 336 337 345 347 340 340 343 340 336 333 330 330 331 339 338 332 330 329 329 329 329 329 329 329 330
18 18 25 32 28 27 7 11 2 349 342 334 334 330 328 324 323 330 341 339 339 341 344 345 343 343 342 343 347 350 351 352 352 352 355 353 351 349 342 335 332 332 334 335 334 331 329 328 328 328 327 328 329 329
30 29 28 30 36 41 26 12 357 347 344 338 336 333 329 326 326 335 337 337 345 356 355 355 354 353 347 345 345 343 342 342 350 353 353 352 349 347 344 340 338 336 334 334 333 332 330 329 328 328 328 327 328 330
25 27 30 22 26 26 24 16 8 359 346 341 338 336 335 343 342 342 343 345 350 344 341 341 342 351 353 353 352 350 347 343 339 334 332 332 330 332 335 336 337 336 335 333 332 331 329 328 329 328 327 327 327 328
23 24 24 19 18 17 11 1 6 4 358 0 4 360 353 353 349 351 347 344 344 346 347 346 343 341 341 343 344 345 349 349 346 341 335 332 330 329 329 331 330 331 332 330 329 329 329 329 329 329 329 329 331 331
19 16 17 16 12 8 5 10 14 8 359 357 357 353 352 356 356 351 345 345 347 349 352 351 350 349 346 344 342 340 339 342 345 342 338 335 331 330 329 329 330 330 329 329 329 329 328 328 328 328 328 329 330 331
16 11 8 6 5 8 8 2 354 350 354 351 353 357 360 351 345 349 346 351 354 353 351 351 350 349 348 347 345 344 341 338 338 335 335 335 334 334 334 334 333 332 330 329 328 328 329 328 327 328 329 330 330 330
16 12 8 7 6 5 4 1 2 358 354 352 352 353 351 351 351 358 4 1 359 356 351 348 346 346 348 347 343 343 344 340 339 339 338 338 337 338 337 336 335 335 334 333 332 331 330 330 330 330 330 331 331 331